• In Lithuania
  • List of Countries
  • For 7 days
  • Water Temperature
  • Satellite Maps
  • Weather Map
  • Weather Widgets
  • user-avatar
    Login

    Hourly Weather Staraya Poltavka

    Today, 14 November, Wednesday

    Time Temperature Precipitation Wind Pressure Humidity
    00:00 -8°C° 0 mm 3 mps 781 mmHg 29%
    01:00 -8°C° 0 mm 3 mps 780 mmHg 29%
    02:00 -8°C° 0 mm 3 mps 780 mmHg 30%
    03:00 -9°C° 0 mm 3 mps 780 mmHg 33%
    04:00 -8°C° 0 mm 2 mps 780 mmHg 33%
    05:00 -8°C° 0 mm 2 mps 780 mmHg 34%
    06:00 -8°C° 0 mm 2 mps 779 mmHg 34%
    07:00 -8°C° 0 mm 3 mps 779 mmHg 33%
    08:00 -8°C° 0 mm 3 mps 779 mmHg 31%
    09:00 -7°C° 0 mm 3 mps 779 mmHg 28%
    10:00 -5°C° 0 mm 3 mps 779 mmHg 26%
    11:00 -4°C° 0 mm 4 mps 778 mmHg 23%
    12:00 -3°C° 0 mm 4 mps 778 mmHg 20%
    13:00 -3°C° 0 mm 4 mps 778 mmHg 20%
    14:00 -3°C° 0 mm 4 mps 777 mmHg 20%
    15:00 -1°C° 0 mm 3 mps 777 mmHg 20%
    16:00 -2°C° 0 mm 3 mps 777 mmHg 22%
    17:00 -5°C° 0 mm 3 mps 777 mmHg 24%
    18:00 -6°C° 0 mm 3 mps 777 mmHg 26%
    19:00 -6°C° 0 mm 3 mps 777 mmHg 26%
    20:00 -6°C° 0 mm 3 mps 776 mmHg 25%
    21:00 -6°C° 0 mm 3 mps 776 mmHg 25%
    22:00 -7°C° 0 mm 3 mps 776 mmHg 25%
    23:00 -7°C° 0 mm 3 mps 776 mmHg 26%

    Tomorrow, 15 November, Thursday

    Time Temperature Precipitation Wind Pressure Humidity
    00:00 -7°C° 0 mm 3 mps 776 mmHg 26%
    01:00 -7°C° 0 mm 3 mps 776 mmHg 26%
    02:00 -7°C° 0 mm 3 mps 776 mmHg 27%
    03:00 -7°C° 0 mm 3 mps 776 mmHg 27%
    04:00 -8°C° 0 mm 3 mps 776 mmHg 27%
    05:00 -8°C° 0 mm 3 mps 776 mmHg 28%
    06:00 -8°C° 0 mm 3 mps 776 mmHg 28%
    07:00 -7°C° 0 mm 3 mps 776 mmHg 27%
    08:00 -7°C° 0 mm 4 mps 776 mmHg 25%
    09:00 -7°C° 0 mm 4 mps 777 mmHg 24%
    10:00 -4°C° 0 mm 4 mps 777 mmHg 22%
    11:00 -3°C° 0 mm 4 mps 777 mmHg 20%
    12:00 -2°C° 0 mm 4 mps 777 mmHg 19%
    13:00 -2°C° 0 mm 4 mps 777 mmHg 19%
    14:00 -2°C° 0 mm 4 mps 776 mmHg 20%
    15:00 -1°C° 0 mm 4 mps 776 mmHg 21%
    16:00 -3°C° 0 mm 4 mps 777 mmHg 23%
    17:00 -4°C° 0 mm 4 mps 777 mmHg 25%
    18:00 -5°C° 0 mm 4 mps 777 mmHg 27%
    19:00 -5°C° 0 mm 4 mps 777 mmHg 27%
    20:00 -5°C° 0 mm 4 mps 777 mmHg 27%
    21:00 -7°C° 0 mm 4 mps 778 mmHg 28%
    22:00 -7°C° 0 mm 4 mps 778 mmHg 28%
    23:00 -7°C° 0 mm 4 mps 778 mmHg 28%

    Day after tomorrow, 16 November, Friday

    Time Temperature Precipitation Wind Pressure Humidity
    00:00 -7°C° 0 mm 4 mps 778 mmHg 29%
    01:00 -7°C° 0 mm 4 mps 778 mmHg 29%
    02:00 -7°C° 0 mm 4 mps 778 mmHg 30%
    03:00 -7°C° 0 mm 4 mps 778 mmHg 30%
    04:00 -8°C° 0 mm 4 mps 778 mmHg 30%
    05:00 -8°C° 0 mm 4 mps 778 mmHg 30%
    06:00 -8°C° 0 mm 4 mps 778 mmHg 31%
    07:00 -7°C° 0 mm 4 mps 779 mmHg 29%
    08:00 -6°C° 0 mm 5 mps 779 mmHg 28%
    09:00 -6°C° 0 mm 5 mps 779 mmHg 26%
    10:00 -5°C° 0 mm 5 mps 779 mmHg 24%
    11:00 -2°C° 0 mm 5 mps 779 mmHg 23%
    12:00 -1°C° 0 mm 5 mps 779 mmHg 21%
    13:00 -1°C° 0 mm 5 mps 779 mmHg 22%
    14:00 -1°C° 0 mm 5 mps 778 mmHg 23%
    15:00 -1°C° 0 mm 4 mps 778 mmHg 24%
    16:00 -2°C° 0 mm 4 mps 778 mmHg 26%
    17:00 -3°C° 0 mm 4 mps 778 mmHg 28%
    18:00 -4°C° 0 mm 4 mps 778 mmHg 31%
    19:00 -4°C° 0 mm 4 mps 778 mmHg 31%
    20:00 -5°C° 0 mm 4 mps 778 mmHg 32%
    21:00 -5°C° 0 mm 4 mps 778 mmHg 32%
    22:00 -5°C° 0 mm 4 mps 778 mmHg 33%
    23:00 -5°C° 0 mm 4 mps 778 mmHg 33%

    17 November, Saturday

    Time Temperature Precipitation Wind Pressure Humidity
    00:00 -5°C° 0 mm 3 mps 778 mmHg 33%
    01:00 -7°C° 0 mm 4 mps 778 mmHg 33%
    02:00 -7°C° 0 mm 4 mps 778 mmHg 33%
    03:00 -7°C° 0 mm 4 mps 777 mmHg 34%
    04:00 -7°C° 0 mm 4 mps 777 mmHg 34%
    05:00 -7°C° 0 mm 4 mps 777 mmHg 34%
    06:00 -7°C° 0 mm 4 mps 777 mmHg 34%
    07:00 -7°C° 0 mm 4 mps 777 mmHg 32%
    08:00 -5°C° 0 mm 4 mps 777 mmHg 30%
    09:00 -4°C° 0 mm 4 mps 777 mmHg 28%
    10:00 -3°C° 0 mm 4 mps 776 mmHg 26%
    11:00 -1°C° 0 mm 3 mps 776 mmHg 24%
    12:00 0°C° 0 mm 3 mps 775 mmHg 22%
    13:00 0°C° 0 mm 3 mps 775 mmHg 23%
    14:00 0°C° 0 mm 3 mps 774 mmHg 24%
    15:00 0°C° 0 mm 3 mps 774 mmHg 26%
    16:00 -1°C° 0 mm 3 mps 773 mmHg 28%
    17:00 -2°C° 0 mm 2 mps 773 mmHg 30%
    18:00 -3°C° 0 mm 2 mps 773 mmHg 32%
    19:00 -4°C° 0 mm 2 mps 772 mmHg 32%
    20:00 -2°C° 0 mm 1 mps 772 mmHg 32%
    21:00 -2°C° 0 mm 1 mps 772 mmHg 32%
    22:00 -2°C° 0 mm 1 mps 771 mmHg 32%
    23:00 -3°C° 0 mm 1 mps 771 mmHg 32%

    18 November, Sunday

    Time Temperature Precipitation Wind Pressure Humidity
    00:00 -4°C° 0 mm 0 mps 770 mmHg 32%
    01:00 -3°C° 0 mm 1 mps 770 mmHg 32%
    02:00 -3°C° 0 mm 1 mps 769 mmHg 32%
    03:00 -3°C° 0 mm 1 mps 769 mmHg 32%
    04:00 -3°C° 0 mm 1 mps 768 mmHg 33%
    05:00 -3°C° 0 mm 1 mps 768 mmHg 33%
    06:00 -3°C° 0 mm 1 mps 767 mmHg 33%
    07:00 -2°C° 0 mm 1 mps 767 mmHg 31%
    08:00 -1°C° 0 mm 1 mps 766 mmHg 29%
    09:00 0°C° 0 mm 1 mps 766 mmHg 27%
    10:00 -1°C° 0 mm 2 mps 766 mmHg 26%
    11:00 +1°C° 0 mm 2 mps 765 mmHg 25%
    12:00 +2°C° 0 mm 2 mps 765 mmHg 24%
    13:00 +1°C° 0 mm 2 mps 764 mmHg 26%
    14:00 +1°C° 0 mm 2 mps 764 mmHg 29%
    15:00 +1°C° 0 mm 2 mps 764 mmHg 31%
    16:00 -1°C° 0 mm 2 mps 764 mmHg 33%
    17:00 -1°C° 0 mm 2 mps 764 mmHg 36%
    18:00 -2°C° 0 mm 2 mps 763 mmHg 38%
    19:00 -2°C° 0 mm 2 mps 763 mmHg 41%
    20:00 -2°C° 0 mm 2 mps 763 mmHg 44%
    21:00 -2°C° 0 mm 2 mps 763 mmHg 47%
    22:00 -2°C° 0 mm 2 mps 763 mmHg 50%
    23:00 0°C° 0 mm 1 mps 763 mmHg 54%

    19 November, Monday

    Time Temperature Precipitation Wind Pressure Humidity
    00:00 0°C° 0 mm 1 mps 763 mmHg 57%
    01:00 0°C° 0 mm 1 mps 763 mmHg 59%
    02:00 0°C° 0 mm 1 mps 764 mmHg 60%
    03:00 0°C° 0 mm 1 mps 764 mmHg 61%
    04:00 -2°C° 0 mm 2 mps 764 mmHg 60%
    05:00 -2°C° 0 mm 2 mps 764 mmHg 60%
    06:00 -3°C° 0 mm 2 mps 764 mmHg 59%
    07:00 -2°C° 0 mm 3 mps 764 mmHg 57%
    08:00 -2°C° 0 mm 3 mps 765 mmHg 54%
    09:00 -1°C° 0 mm 3 mps 765 mmHg 51%
    10:00 -1°C° 0 mm 3 mps 765 mmHg 54%
    11:00 0°C° 0 mm 3 mps 765 mmHg 57%
    12:00 +1°C° 0 mm 3 mps 765 mmHg 59%
    13:00 +1°C° 0 mm 3 mps 766 mmHg 64%
    14:00 +1°C° 0 mm 3 mps 766 mmHg 68%
    15:00 0°C° 0 mm 3 mps 766 mmHg 73%
    16:00 0°C° 0 mm 3 mps 766 mmHg 75%
    17:00 0°C° 0 mm 3 mps 766 mmHg 77%
    18:00 -1°C° 0 mm 3 mps 767 mmHg 79%
    19:00 -1°C° 0 mm 3 mps 767 mmHg 80%
    20:00 -1°C° 0 mm 3 mps 767 mmHg 81%
    21:00 -1°C° 0 mm 3 mps 767 mmHg 82%
    22:00 -1°C° 0 mm 3 mps 768 mmHg 83%
    23:00 -2°C° 0 mm 3 mps 768 mmHg 84%
    Show more